EST,Max TemperatureF,Mean TemperatureF,Min TemperatureF,Max Dew PointF,MeanDew PointF,Min DewpointF,Max Humidity, Mean Humidity, Min Humidity, Max Sea Level PressureIn, Mean Sea Level PressureIn, Min Sea Level PressureIn, Max VisibilityMiles, Mean VisibilityMiles, Min VisibilityMiles, Max Wind SpeedMPH, Mean Wind SpeedMPH, Max Gust SpeedMPH,PrecipitationIn, CloudCover, Events, WindDirDegrees
2013-2-1,46,39,32,27,10,-9,57,33,9,30.36,30.24,30.09,10,10,10,18,10,29,0.00,0,,278
2013-2-2,53,38,24,43,15,-2,100,44,11,30.36,30.26,30.10,10,10,5,13,4,33,0.00,1,Rain,279
2013-2-3,55,46,37,41,32,21,100,69,26,30.09,30.05,29.97,10,10,7,18,9,32,0.00,0,,276
2013-2-4,51,42,33,34,28,23,87,60,33,30.15,30.07,30.03,10,10,10,10,4,,0.00,0,,255
2013-2-5,57,45,33,50,38,30,94,77,47,30.04,30.01,29.97,10,10,10,9,3,,0.00,1,,235
2013-2-6,59,50,41,46,40,30,100,78,36,30.16,30.10,30.03,10,7,0,7,4,,0.00,0,Fog,273
2013-2-7,48,45,42,45,39,30,100,81,50,30.16,30.07,29.92,10,8,2,13,6,21,0.00,6,Rain,46
2013-2-8,53,48,42,48,41,32,100,86,57,30.13,30.00,29.91,10,9,7,9,5,17,0.00,4,,323
2013-2-9,53,42,32,36,32,28,100,77,38,30.31,30.23,30.11,10,10,7,7,3,,0.00,0,,355
2013-2-10,53,42,37,54,33,30,100,75,57,30.36,30.32,30.19,10,10,4,8,4,,0.00,0,Rain,93
2013-2-11,60,56,53,59,56,54,100,99,88,30.15,30.08,30.03,10,9,5,12,7,23,0.00,6,Rain,209
2013-2-12,59,52,46,54,48,41,100,89,58,30.11,30.02,29.89,10,10,4,9,5,,0.00,2,Rain-Thunderstorm,310
2013-2-13,53,48,42,52,45,36,100,88,62,29.91,29.81,29.75,10,7,1,20,5,26,0.00,5,Rain-Thunderstorm,291
2013-2-14,53,43,33,37,34,32,100,78,44,30.10,30.02,29.91,10,9,4,8,5,,0.00,0,,266
2013-2-15,55,45,35,37,34,32,100,72,44,30.11,30.04,29.97,10,10,10,8,4,,0.00,0,,302
2013-2-16,46,40,33,39,22,5,93,51,21,30.10,29.97,29.88,10,10,7,23,8,34,0.00,1,Rain,298
2013-2-17,46,37,28,18,9,0,52,35,14,30.29,30.21,30.10,10,10,10,17,9,26,0.00,0,,276
2013-2-18,53,40,26,27,21,12,80,55,25,30.38,30.29,30.20,10,10,10,9,2,,0.00,0,,167
2013-2-19,53,45,37,50,33,18,100,70,28,30.19,30.08,30.00,10,8,2,14,6,23,0.00,4,Rain,225
2013-2-20,59,46,33,23,13,1,52,32,10,30.17,30.11,30.07,10,10,10,10,7,,0.00,0,,280
2013-2-21,57,45,33,32,22,12,65,42,24,30.20,30.12,30.03,10,10,10,9,5,,0.00,1,,44
2013-2-22,53,47,41,43,40,28,100,93,38,30.19,30.14,30.08,10,4,1,13,6,23,0.00,8,Rain,53
2013-2-23,44,42,41,45,43,41,100,100,100,30.09,29.94,29.86,10,4,1,9,4,,0.00,8,Rain-Thunderstorm,37
2013-2-24,53,48,44,46,35,32,93,57,50,30.00,29.95,29.89,10,5,1,8,5,,0.00,5,,277
2013-2-25,48,42,37,37,32,27,100,61,46,30.08,30.00,29.94,10,10,2,14,7,22,0.00,4,Rain,61
2013-2-26,46,42,37,46,41,37,100,100,87,29.94,29.72,29.59,10,5,1,15,8,26,0.00,7,Rain-Snow,33
2013-2-27,53,45,37,37,34,30,93,65,44,29.89,29.82,29.76,10,10,10,15,7,24,0.00,3,,260
2013-2-28,53,45,37,34,29,23,81,56,35,29.95,29.88,29.81,10,10,10,16,9,25,0.00,1,,283